YAOGAN-30 R (45460 NORAD) Tracking and Keplerian Element Data

This shows tracking and keplerian element data for the satellite.

Feedback or suggestion? Click here.




ElementValue
Catalog45460
NameYAOGAN-30 R
Epoch Orbit148
Epoch Day94.06740713
Epoch Year2020
RAAN154.4035
Inclination34.9988
Eccentricity0.0016215
Argument of Perigee96.6322
Mean Anonmoly263.627
Mean Motion14.85595415
Decay Rate-6.048E-05
L11 45460U 20021A 20094.06740713 -.00006048 00000-0 -68246-3 0 9996
L22 45460 34.9988 154.4035 0016215 96.6322 263.6270 14.85595415 1483

Live tracking and technical data element details for YAOGAN-30 R (NORAD 45460). YAOGAN-30 R can be tracked NOW for your location showing map with azimuth and elevation plus other details from your city location.

Track the satellite on the map from your city or location and see movement details for azimuth, elevation, latitude, longitude, range, height, and movement on the map or in text.







IsCatalogInMostPopularTable: catalog: 45460, numindb: 2
Update: records affected: 1



GetName: 45460 YAOGAN-30 R

Hit Count: updated at: Mon, 06 Apr 2020 11:21:58 GMT